This is the latest recevied weather packets stored in our database for station/object F4IVW-13. If no packets are shown the sender has not sent any weather packets the latest 10 day(s).
| Time | Temp. | Humidity | Pressure | Rain* | Wind** | Luminosity | Snow |
|---|---|---|---|---|---|---|---|
| 1777454449 | 17.22° C | 99% | 1010.5 hPa | 0.25 mm | - | 3 W/m² | - |
| 1777454126 | 17.22° C | 99% | 1010.5 hPa | 0.25 mm | - | 3 W/m² | - |
| 1777453806 | 17.78° C | 99% | 1010.5 hPa | 0.25 mm | - | 3 W/m² | - |
| 1777453489 | 18.33° C | 99% | 1010.4 hPa | 0.25 mm | - | 2 W/m² | - |
| 1777453169 | 18.33° C | 99% | 1010.3 hPa | 0.25 mm | - | 3 W/m² | - |
| 1777452853 | 17.78° C | 99% | 1010.4 hPa | 0 mm | - | 7 W/m² | - |
| 1777452544 | 17.22° C | 99% | 1010.4 hPa | 0 mm | - | 22 W/m² | - |
| 1777452217 | 17.22° C | 99% | 1010.4 hPa | 0 mm | - | 14 W/m² | - |
| 1777451898 | 16.67° C | 99% | 1010.4 hPa | 0 mm | - | 12 W/m² | - |
| 1777451581 | 16.11° C | 99% | 1010.5 hPa | 0 mm | - | 8 W/m² | - |
| 1777451264 | 16.11° C | 99% | 1010.4 hPa | 0 mm | - | 9 W/m² | - |
| 1777450947 | 15.56° C | 99% | 1010.5 hPa | 0 mm | - | 7 W/m² | - |
| 1777450639 | 16.11° C | 99% | 1010.6 hPa | 0 mm | - | 2 W/m² | - |
| 1777450313 | 16.11° C | 99% | 1010.5 hPa | 0 mm | - | 1 W/m² | - |
| 1777449996 | 16.11° C | 99% | 1010.4 hPa | 0 mm | - | 2 W/m² | - |
| 1777449682 | 16.11° C | 99% | 1010.4 hPa | 0 mm | - | 4 W/m² | - |
| 1777449361 | 16.11° C | 99% | 1010.2 hPa | 0 mm | - | 5 W/m² | - |
| 1777448409 | 15.56° C | 99% | 1010.4 hPa | 0 mm | - | 10 W/m² | - |
| 1777448092 | 15° C | 99% | 1010.5 hPa | 0 mm | - | 8 W/m² | - |
| 1777447774 | 15° C | 99% | 1010.3 hPa | 0 mm | - | 4 W/m² | - |
| 1777447457 | 14.44° C | 99% | 1010.3 hPa | 0 mm | - | 2 W/m² | - |
| 1777447140 | 14.44° C | 99% | 1010.4 hPa | 0 mm | - | 1 W/m² | - |
| 1777446831 | 14.44° C | 99% | 1010.3 hPa | 0 mm | - | 0 W/m² | - |
| 1777446501 | 14.44° C | 99% | 1010.3 hPa | 0 mm | - | 0 W/m² | - |
| 1777446185 | 14.44° C | 99% | 1010.3 hPa | 0 mm | - | 0 W/m² | - |
* Rain latest hour (hover to see other rain measurements)
** Current wind speed in m/s (hover to see current wind gust speed)